This demonstration page uses our WeatherBlox Daily Observations layout. Learn more.

Left ArrowRight Arrow

39.01783, -85.05884

Hourly Observations for August 14, 2017

Temp ( °F °C ) Dew Point ( °F °C ) Humidity (%) Winds ( mph kmh ) Pressure ( in mb ) Visibility ( mi km ) Precip ( " mm )
12:52 am 00:52 Partly Cloudy 68 20 60 15.6 76 76 SSE 3 6 29.95 1014 10 16 0.00 0.00
1:52 am 01:52 Mostly Cloudy 70 21.1 60 15.6 71 71 SE 3 6 29.94 1014 10 16 0.00 0.00
2:52 am 02:52 Mostly Cloudy 69 20.6 61 16.1 76 76 ESE 5 7 29.94 1014 10 16 0.00 0.00
3:52 am 03:52 Mostly Cloudy 69 20.6 61 16.1 76 76 E 3 6 29.93 1014 10 16 0.00 0.00
4:52 am 04:52 Cloudy 69 20.6 62 16.7 78 78 E 5 7 29.93 1014 10 16 0.00 0.00
5:52 am 05:52 Cloudy 69 20.6 62 16.7 78 78 ESE 5 7 29.92 1013 10 16 0.00 0.00
6:52 am 06:52 Cloudy 69 20.6 62 16.7 78 78 E 5 7 29.94 1014 10 16 0.00 0.00
7:52 am 07:52 Cloudy with Drizzle 69 20.6 63 17.2 81 81 E 5 7 29.93 1014 10 16 0.00 0.03
8:52 am 08:52 Cloudy 71 21.7 63 17.2 76 76 SE 5 7 29.94 1014 10 16 0.00 0.03
9:52 am 09:52 Cloudy 72 22.2 64 17.8 76 76 ESE 8 13 29.93 1013 10 16 0.00 0.00
10:52 am 10:52 Cloudy 76 24.4 66 18.9 72 72 S 12 19 29.91 1013 10 16 0.00 0.00
11:52 am 11:52 Cloudy 77 25 68 20 74 74 S 10 17 29.91 1013 10 16 0.00 0.00
12:52 pm 12:52 Cloudy 79 26.1 69 20.6 72 72 SSE 7 11 29.91 1013 10 16 0.00 0.00
1:29 pm 13:29 Cloudy 79 26.1 69 20.6 72 72 S 7 11 29.91 1013 10 16 0.00 0.00
1:52 pm 13:52 Cloudy 79 26.1 69 20.6 72 72 S 5 7 29.89 1012 10 16 0.00 0.00
2:52 pm 14:52 Cloudy with Light Rain 76 24.4 71 21.7 85 85 SSW 7 11 29.89 1012 8 13 0.00 0.03
3:52 pm 15:52 Cloudy 78 25.6 70 21.1 76 76 SSW 8 13 29.88 1012 10 16 0.00 0.03
4:52 pm 16:52 Cloudy 79 26.1 70 21.1 74 74 SSW 10 17 29.85 1011 10 16 0.00 0.00
5:52 pm 17:52 Cloudy 78 25.6 68 20 71 71 S 9 15 29.83 1010 10 16 0.00 0.00
6:52 pm 18:52 Cloudy 77 25 68 20 74 74 SSW 7 11 29.84 1010 10 16 0.00 0.00
7:52 pm 19:52 Cloudy 76 24.4 69 20.6 79 79 Calm 29.84 1011 10 16 0.00 0.00
8:52 pm 20:52 Cloudy 73 22.8 70 21.1 90 90 S 5 7 29.84 1011 10 16 0.00 0.00
9:52 pm 21:52 Cloudy 75 23.9 68 20 79 79 SW 3 6 29.85 1011 10 16 0.00 0.00
10:52 pm 22:52 Cloudy 74 23.3 68 20 82 82 SW 3 6 29.85 1011 10 16 0.00 0.00
11:52 pm 23:52 Cloudy 73 22.8 68 20 84 84 WSW 3 6 29.85 1011 10 16 0.00 0.00

Powered by AerisWeather